Weather History for Hobbs, NM

Change the Weather History Date:

Saturday, February 1, 2014

  Actual Average Record
Temperature  
Mean Temperature 49 °F -  
Max Temperature 66 °F 56 °F 77 °F (2003)
Min Temperature 32 °F 30 °F -11 °F (1951)
Degree Days  
Heating Degree Days 16    
Moisture  
Dew Point 27 °F    
Average Humidity 45    
Maximum Humidity 87    
Minimum Humidity 23    
Precipitation  
Precipitation 0.03 in - - ()
Sea Level Pressure  
Sea Level Pressure 29.85 in    
Wind  
Wind Speed 11 mph (NE)    
Max Wind Speed 23 mph    
Max Gust Speed 31 mph    
Visibility 10 miles    
Events Rain    
Averages and records for this station are not official NWS values.
T = Trace of Precipitation, MM = Missing Value Source: NWS Daily Summary

Daily Weather History Graph

Daily Weather History Graph

Search for Another Location

Airport:

Trip Planner

Search our weather history database for the weather conditions in past years. The results will help you decide how hot, cold, wet, or windy it might be!

Date:

Astronomy

Feb. 01, 2014 Rise Set
Actual Time 6:47 AM MST 5:25 PM MST
Civil Twilight 6:21 AM MST 5:51 PM MST
Nautical Twilight 5:52 AM MST 6:21 PM MST
Astronomical Twilight 5:23 AM MST 6:50 PM MST
Moon 7:48 AM MST (2/1) 7:52 PM MST (2/1)
Length of Visible Light 11h 29m
Length of Day
10h 38m
Waxing Crescent, 5% of the Moon is Illuminated
Feb 1
Waxing Crescent
Feb 6
First Quarter
Feb 14
Full
Feb 22
Last Quarter
Mar 1
New

Hourly Weather History & Observations

Time (MST) Temp. Windchill Dew Point Humidity Pressure Visibility Wind Dir Wind Speed Gust Speed Precip Events Conditions
12:15 AM 50.0 °F - 28.4 °F 43% 29.76 in 10.0 mi Calm Calm - N/A   Clear
12:35 AM 50.0 °F - 28.4 °F 43% 29.75 in 10.0 mi SW 10.4 mph - N/A   Clear
12:55 AM 50.0 °F - 28.4 °F 43% 29.75 in 10.0 mi SSW 9.2 mph - N/A   Clear
1:15 AM 50.0 °F - 28.4 °F 43% 29.75 in 10.0 mi SSW 9.2 mph - N/A   Clear
1:35 AM 50.0 °F - 28.4 °F 43% 29.75 in 10.0 mi SSW 8.1 mph - N/A   Clear
1:55 AM 50.0 °F - 28.4 °F 43% 29.75 in 10.0 mi WSW 8.1 mph - N/A   Clear
2:15 AM 48.2 °F - 28.4 °F 46% 29.75 in 10.0 mi Calm Calm - N/A   Clear
2:35 AM 46.4 °F 42.4 °F 28.4 °F 50% 29.74 in 10.0 mi SSW 8.1 mph - N/A   Clear
2:55 AM 48.2 °F - 28.4 °F 46% 29.74 in 10.0 mi WSW 13.8 mph - N/A   Clear
3:15 AM 51.8 °F - 28.4 °F 41% 29.74 in 10.0 mi WSW 11.5 mph - N/A   Clear
3:35 AM 51.8 °F - 28.4 °F 41% 29.74 in 10.0 mi West 11.5 mph - N/A   Clear
3:55 AM 53.6 °F - 28.4 °F 38% 29.75 in 10.0 mi WSW 13.8 mph - N/A   Clear
5:50 AM 48.2 °F - 28.4 °F 46% 29.79 in 10.0 mi SW 8.1 mph - N/A   Clear
6:50 AM 50.0 °F - 30.2 °F 47% 29.80 in 10.0 mi WSW 11.5 mph - N/A   Clear
7:50 AM 53.6 °F - 32.0 °F 44% 29.83 in 10.0 mi WSW 10.4 mph - N/A   Clear
8:50 AM 59.0 °F - 32.0 °F 36% 29.84 in 10.0 mi SW 11.5 mph - N/A   Clear
9:50 AM 62.6 °F - 30.2 °F 30% 29.85 in 10.0 mi WSW 18.4 mph 25.3 mph N/A   Clear
10:50 AM 64.4 °F - 28.4 °F 26% 29.84 in 10.0 mi WSW 23.0 mph 28.8 mph N/A   Clear
11:50 AM 66.2 °F - 28.4 °F 24% 29.82 in 10.0 mi WSW 20.7 mph 31.1 mph N/A   Scattered Clouds
12:50 PM 66.2 °F - 28.4 °F 24% 29.79 in 10.0 mi SSW 19.6 mph 27.6 mph N/A   Mostly Cloudy
1:50 PM 66.2 °F - 28.4 °F 24% 29.78 in 10.0 mi SSW 11.5 mph 21.9 mph N/A   Scattered Clouds
2:50 PM 66.2 °F - 26.6 °F 23% 29.78 in 10.0 mi WSW 16.1 mph 21.9 mph N/A   Mostly Cloudy
3:50 PM 64.4 °F - 28.4 °F 26% 29.79 in 10.0 mi WSW 12.7 mph 18.4 mph N/A   Mostly Cloudy
4:50 PM 53.6 °F - 28.4 °F 38% 29.83 in 10.0 mi ENE 12.7 mph 21.9 mph N/A   Mostly Cloudy
5:15 PM 51.8 °F - 28.4 °F 41% 29.84 in 9.0 mi NE 11.5 mph - N/A   Clear
5:35 PM 50.0 °F - 28.4 °F 43% 29.84 in 10.0 mi ENE 15.0 mph - N/A   Clear
5:50 PM 50.0 °F - 28.4 °F 43% 29.84 in 10.0 mi ENE 12.7 mph - N/A   Mostly Cloudy
5:55 PM 50.0 °F - 28.4 °F 43% 29.85 in 10.0 mi ENE 15.0 mph - N/A   Clear
6:15 PM 48.2 °F - 26.6 °F 43% 29.85 in 10.0 mi ENE 15.0 mph - N/A   Partly Cloudy
6:35 PM 48.2 °F - 26.6 °F 43% 29.87 in 10.0 mi ENE 16.1 mph 21.9 mph N/A   Mostly Cloudy
6:55 PM 46.4 °F 40.4 °F 26.6 °F 46% 29.88 in 10.0 mi ENE 13.8 mph - N/A   Mostly Cloudy
7:15 PM 46.4 °F 39.5 °F 26.6 °F 46% 29.89 in 10.0 mi ENE 17.3 mph 21.9 mph N/A   Scattered Clouds
7:35 PM 44.6 °F 37.2 °F 26.6 °F 49% 29.90 in 10.0 mi ENE 17.3 mph 21.9 mph N/A   Scattered Clouds
7:55 PM 44.6 °F 37.4 °F 24.8 °F 46% 29.91 in 10.0 mi ENE 16.1 mph - N/A   Scattered Clouds
8:15 PM 44.6 °F 37.4 °F 24.8 °F 46% 29.91 in 10.0 mi NE 16.1 mph - N/A   Mostly Cloudy
8:35 PM 42.8 °F 35.4 °F 24.8 °F 49% 29.93 in 10.0 mi NE 15.0 mph - N/A   Scattered Clouds
8:55 PM 42.8 °F 34.5 °F 24.8 °F 49% 29.93 in 10.0 mi NE 18.4 mph 26.5 mph N/A   Clear
9:15 PM 41.0 °F 32.8 °F 23.0 °F 49% 29.94 in 10.0 mi ENE 16.1 mph 24.2 mph N/A   Clear
9:35 PM 39.2 °F 30.2 °F 23.0 °F 52% 29.97 in 10.0 mi NE 17.3 mph 23.0 mph N/A   Clear
9:55 PM 39.2 °F 29.8 °F 23.0 °F 52% 29.97 in 9.0 mi NE 18.4 mph 23.0 mph N/A   Partly Cloudy
10:15 PM 39.2 °F 29.6 °F 23.0 °F 52% 29.99 in 9.0 mi NNE 19.6 mph 24.2 mph N/A   Clear
10:35 PM 37.4 °F 27.8 °F 23.0 °F 56% 30.01 in 10.0 mi NNE 17.3 mph 23.0 mph N/A Rain Light Rain
10:55 PM 35.6 °F 24.8 °F 24.8 °F 65% 30.01 in 7.0 mi NNE 19.6 mph 23.0 mph N/A Rain Light Rain
11:15 PM 33.8 °F 24.3 °F 26.6 °F 75% 30.02 in 7.0 mi NNE 13.8 mph 24.2 mph N/A Rain Light Rain
11:35 PM 32.0 °F 20.5 °F 28.4 °F 87% 30.01 in 5.0 mi NNE 18.4 mph 23.0 mph 0.01 in Rain Light Rain
11:55 PM 32.0 °F 21.6 °F 28.4 °F 87% 30.01 in 5.0 mi NNE 15.0 mph 21.9 mph 0.03 in Rain Light Rain